Location: Killam
(52.7910°N, 111.8608°W)
Time: 04:29:55
(UTC+00:00)

Transit 2A - Pass Details

Date: 22 February 2026
Orbit: 590 x 954 km, 66.7° (Epoch: 14 March)

Event Time Altitude Azimuth Distance (km) Brightness Sun altitude
Rises 02:43:10 0° 319° (NW) 3,612 10.2 -17.5°
Reaches altitude 10° 02:45:50 10° 322° (NW) 2,637 9.4 -17.9°
Maximum altitude 02:51:58 66° 45° (NE) 960 6.3 -18.8°
Enters shadow 02:54:34 33° 117° (ESE) 1,397 6.8 -19.2°
